Weather History for Westhampton Beach, NY

Change the Weather History Date:

Sunday, December 9, 2012

  Actual Average Record
Temperature  
Mean Temperature 46 °F -  
Max Temperature 50 °F 45 °F 55 °F (2008)
Min Temperature 42 °F 27 °F 3 °F (2002)
Degree Days  
Heating Degree Days 19    
Moisture  
Dew Point 44 °F    
Average Humidity 89    
Maximum Humidity 100    
Minimum Humidity 66    
Precipitation  
Precipitation 0.22 in - - ()
Sea Level Pressure  
Sea Level Pressure 30.14 in    
Wind  
Wind Speed 4 mph (NNE)    
Max Wind Speed 12 mph    
Max Gust Speed 20 mph    
Visibility 5 miles    
Events Fog , Rain    
Averages and records for this station are not official NWS values.
T = Trace of Precipitation, MM = Missing Value Source: NWS Daily Summary

Daily Weather History Graph

Daily Weather History Graph

Search for Another Location

Airport:

Trip Planner

Search our weather history database for the weather conditions in past years. The results will help you decide how hot, cold, wet, or windy it might be!

Date:

Astronomy

Dec. 09, 2012 Rise Set
Actual Time 7:03 AM EST 4:22 PM EST
Civil Twilight 6:32 AM EST 4:53 PM EST
Nautical Twilight 5:58 AM EST 5:27 PM EST
Astronomical Twilight 5:24 AM EST 6:01 PM EST
Moon 2:31 AM EST (12/9) 1:28 PM EST (12/9)
Length of Visible Light 10h 20m
Length of Day
9h 19m
Waning Crescent, 19% of the Moon is Illuminated
Dec 9
Waning Crescent
Dec 13
New
Dec 20
First Quarter
Dec 28
Full
Jan 4
Last Quarter

Hourly Weather History & Observations

Time (EST) Temp. Windchill Dew Point Humidity Pressure Visibility Wind Dir Wind Speed Gust Speed Precip Events Conditions
12:35 AM 48.2 °F - 48.2 °F 100% 30.02 in 3.0 mi Calm Calm - 0.01 in Rain Light Rain
12:53 AM 48.9 °F - 48.0 °F 97% 30.03 in 3.0 mi SW 3.5 mph - 0.01 in Rain Light Rain
1:22 AM 48.2 °F - 46.4 °F 93% 30.03 in 3.0 mi SW 3.5 mph - 0.01 in Rain Light Rain
1:35 AM 48.2 °F - 46.4 °F 93% 30.03 in 3.0 mi SW 4.6 mph - 0.02 in Rain Light Rain
1:46 AM 48.2 °F - 46.4 °F 93% 30.04 in 3.0 mi SW 5.8 mph - 0.02 in Rain Light Rain
1:53 AM 48.9 °F - 46.9 °F 93% 30.04 in 3.0 mi SW 3.5 mph - 0.02 in Rain Light Rain
2:15 AM 48.2 °F - 46.4 °F 93% 30.05 in 4.0 mi Calm Calm - 0.00 in   Overcast
2:53 AM 48.9 °F - 46.9 °F 93% 30.07 in 3.0 mi WSW 4.6 mph - 0.00 in   Overcast
3:27 AM 48.2 °F - 46.4 °F 93% 30.08 in 3.0 mi West 3.5 mph - N/A   Overcast
3:41 AM 48.2 °F - 46.4 °F 93% 30.08 in 2.5 mi Calm Calm - N/A   Overcast
3:51 AM 48.2 °F - 46.4 °F 93% 30.09 in 2.5 mi WNW 3.5 mph - N/A   Overcast
3:53 AM 48.9 °F - 46.9 °F 93% 30.09 in 2.5 mi WNW 3.5 mph - N/A   Overcast
4:04 AM 48.2 °F - 46.4 °F 93% 30.09 in 3.0 mi NW 3.5 mph - 0.01 in   Overcast
4:53 AM 48.9 °F - 46.9 °F 93% 30.12 in 4.0 mi NNW 4.6 mph - 0.01 in   Mostly Cloudy
5:18 AM 46.4 °F 45.2 °F 46.4 °F 100% 30.13 in 3.0 mi NNW 3.5 mph - N/A   Partly Cloudy
5:31 AM 46.4 °F - 46.4 °F 100% 30.13 in 2.5 mi Calm Calm - N/A   Clear
5:51 AM 44.6 °F - 44.6 °F 100% 30.14 in 0.8 mi Calm Calm - N/A   Partly Cloudy
5:53 AM 44.1 °F - 43.0 °F 96% 30.15 in 0.5 mi Calm Calm - N/A Fog Fog
6:10 AM 42.8 °F 41.1 °F 42.8 °F 100% 30.16 in 1.0 mi North 3.5 mph - N/A   Clear
6:36 AM 44.6 °F 42.2 °F 42.8 °F 93% 30.18 in 4.0 mi North 4.6 mph - N/A   Clear
6:53 AM 45.0 °F 42.6 °F 43.0 °F 93% 30.18 in 7.0 mi North 4.6 mph - N/A   Clear
7:53 AM 45.0 °F - 43.0 °F 93% 30.22 in 6.0 mi Calm Calm - N/A   Mostly Cloudy
8:53 AM 46.9 °F - 39.0 °F 74% 30.24 in 10.0 mi North 8.1 mph - N/A   Overcast
9:53 AM 46.9 °F - 37.9 °F 71% 30.26 in 10.0 mi North 9.2 mph - N/A   Scattered Clouds
10:53 AM 46.9 °F - 37.9 °F 71% 30.25 in 10.0 mi North 6.9 mph - N/A   Overcast
11:53 AM 46.9 °F - 36.0 °F 66% 30.25 in 10.0 mi North 6.9 mph - 0.00 in Rain Light Rain
12:53 PM 46.9 °F - 39.0 °F 74% 30.23 in 10.0 mi NNE 4.6 mph - 0.00 in   Overcast
1:53 PM 46.9 °F - 39.0 °F 74% 30.22 in 10.0 mi NNE 4.6 mph - 0.00 in Rain Light Rain
2:53 PM 46.0 °F 43.9 °F 39.9 °F 79% 30.24 in 10.0 mi NNE 4.6 mph - 0.01 in Rain Light Rain
3:53 PM 45.0 °F 42.6 °F 41.0 °F 86% 30.23 in 7.0 mi NNE 4.6 mph - 0.02 in Rain Light Rain
5:53 PM 46.0 °F 43.9 °F 42.1 °F 86% 30.23 in 7.0 mi East 4.6 mph - 0.01 in Rain Light Rain
6:53 PM 45.0 °F 41.8 °F 41.0 °F 86% 30.24 in 8.0 mi East 5.8 mph - 0.05 in Rain Light Rain
7:53 PM 44.1 °F 39.5 °F 39.9 °F 85% 30.21 in 8.0 mi East 8.1 mph - 0.01 in Rain Light Rain
8:08 PM 44.6 °F 40.2 °F 41.0 °F 87% 30.20 in 7.0 mi East 8.1 mph - 0.01 in Rain Light Rain
8:20 PM 44.6 °F 40.2 °F 41.0 °F 87% 30.19 in 5.0 mi East 8.1 mph - 0.01 in Rain Light Rain
8:31 PM 44.6 °F 40.7 °F 42.8 °F 93% 30.18 in 3.0 mi East 6.9 mph - 0.01 in Rain Light Rain
8:53 PM 46.0 °F 41.4 °F 43.0 °F 89% 30.17 in 4.0 mi East 9.2 mph - 0.02 in Rain Light Rain
9:53 PM 46.9 °F - 45.0 °F 93% 30.13 in 3.0 mi East 10.4 mph 17.3 mph 0.02 in Rain Rain
10:53 PM 50.0 °F - 46.9 °F 89% 30.08 in 6.0 mi East 10.4 mph 19.6 mph 0.03 in Rain Light Rain
11:53 PM 50.0 °F - 48.9 °F 96% 30.04 in 7.0 mi East 11.5 mph 19.6 mph 0.01 in Rain Light Rain